ARIANE 44L R/B

基本信息
目录编号:
26901
目录名称:
ARIANE 44L R/B
国际标识:
2001-039B
轨道中心:
EARTH
物体状态:
在轨
发射日期:
2001-08-30 UTC
国别:
法国 (FR)
轨道信息
数据来源: 国际轨道数据
星历时间: 2026-07-13T21:22:56+0800
半长轴: 18506.177km
偏心率: 0.6391389
轨道倾角: 7.721°
近地点辐角: 251.080°
升交点赤经: 329.041°
平近点角: 33.224°
近地点: 300.022km
远地点: 23956.058km
周期: 417.575分钟
每日圈数: 3.44848
详细信息
发射场:
FRGUI
轨道高度:
LEO
数据来源:
AOE Integration Group
参考系:
TEME
时间系统:
UTC
历元类型:
SGP4
2D轨道图
3D轨道图
轨道高度分析图
轨道倾角分析图
轨道综合分析图
查看轨道综合分析图